Location: Gleizolles
(44.4833°N, 6.7667°E)
Time: 13:44:24
(UTC+00:00)

deb Explorer IX - Pass Details

Date: 28 June 2024
Orbit: 510 x 878 km, 38.7° (Epoch: 21 July)

Event Time Altitude Azimuth Distance (km) Brightness Sun altitude
Rises 05:44:27 0° 232° (SW) 2,618 ? 17.5°
Reaches altitude 10° 05:46:51 10° 220° (SW) 1,757 ? 17.9°
Maximum altitude 05:50:13 26° 162° (SSE) 1,087 ? 18.4°
Drops below altitude 10° 05:53:48 10° 105° (ESE) 1,882 ? 19.1°
Sets 05:56:28 0° 93° (E) 2,848 ? 19.5°
